Regional Weather Roundup
Issued by NWS Raleigh/Durham, NC

Home | Current Version | Previous Version | Text Only | Print | Product List | Glossary On
Versions: 1 2 3 4 5 6 7 8 9 10 11 12 13 14 15 16 17 18 19 20 21 22 23 24 25 26 27 28 29 30 31 32 33 34 35 36 37 38 39 40 41 42 43 44 45 46 47 48 49 50
000
ASUS42 KRAH 250510
RWRRAH
NORTH CAROLINA WEATHER ROUNDUP
NATIONAL WEATHER SERVICE RALEIGH NC
100 AM EDT SAT MAR 25 2017

NOTE: "FAIR" INDICATES FEW OR NO CLOUDS BELOW 12,000 FEET WITH NO
SIGNIFICANT WEATHER AND/OR OBSTRUCTIONS TO VISIBILITY.

NCZ001-053-055-056-065-067-250600-
WESTERN NORTH CAROLINA

CITY           SKY/WX    TMP DP  RH WIND       PRES   REMARKS
ASHEVILLE      CLOUDY    49  43  80 CALM      30.34F
JEFFERSON      CLOUDY    51  43  73 S6        30.34F
MORGANTON      MOCLDY    49  47  93 CALM      30.37S
HICKORY        MOCLDY    59  46  62 S3        30.32F
RUTHERFORDTON  CLOUDY    52  46  80 CALM      30.33F
MOUNT AIRY     CLOUDY    54  48  78 CALM      30.34F
BOONE          PTCLDY    53  42  65 W3        30.35F
$$

NCZ021-022-025-041-071-084-088-250600-
CENTRAL NORTH CAROLINA

CITY           SKY/WX    TMP DP  RH WIND       PRES   REMARKS
CHARLOTTE      MOCLDY    60  46  59 S9        30.35R
GREENSBORO     MOCLDY    57  47  69 S7        30.32S
WINSTON-SALEM  CLOUDY    60  44  55 SW5       30.33F
RALEIGH-DURHAM CLOUDY    58  48  69 SW12      30.35S
FORT BRAGG     CLOUDY    60  49  67 SW6       30.36R
FAYETTEVILLE   CLOUDY    58  50  75 S8        30.36S
BURLINGTON     CLOUDY    59  47  64 S7        30.32S
LAURINBURG     NOT AVBL
$$

NCZ011-015-027-028-043-044-047-080-103-250600-
NORTHEASTERN NORTH CAROLINA

CITY           SKY/WX    TMP DP  RH WIND       PRES   REMARKS
ROCKY MT-WILSO CLEAR     56  49  77 S8        30.35S
GREENVILLE     CLEAR     57  50  77 SW7       30.36S
WASHINGTON     CLEAR     57  49  75 SW7       30.36F
ELIZABETH CITY CLEAR     57  50  77 SW13      30.33S
MANTEO         CLEAR     57  50  78 SW14      30.35F
CAPE HATTERAS  CLEAR     60  52  74 SW9       30.37F HAZE
$$

NCZ078-087-090-091-093-098-101-250600-
SOUTHEASTERN NORTH CAROLINA

CITY           SKY/WX    TMP DP  RH WIND       PRES   REMARKS
LUMBERTON      CLOUDY    56  50  80 S3        30.37S
GOLDSBORO      CLOUDY    57  51  79 S6        30.35S
KINSTON        CLOUDY    55  49  79 S6        30.37S
KENANSVILLE    CLEAR     57  48  72 CALM      30.37S
NEW BERN       CLEAR     56  51  84 SW7       30.38F
CHERRY POINT   CLEAR     56  49  77 S6        30.38F
BEAUFORT       CLEAR     60  54  80 SW7       30.38F
JACKSONVILLE   NOT AVBL
WILMINGTON     CLEAR     56  51  84 S7        30.38F
$$




USA.gov is the U.S. government's official web portal to all federal, state and local government web resources and services.